User: anonymous   Login
Location: *
(45.8589°N, 4.7139°E)
Time: 15:40:54
(UTC+00:00)
Language:

Cosmos 2228 - Orbit

View from above orbital plane
View from above orbital plane
View from above satellite
View from above satellite

Ground track
Ground track

The orbit data is extracted from the following two-line orbital elements,

1 22286U 92094A   21163.83214978  .00000214  00000-0  20421-4 0  9999
2 22286  82.5211  79.7763 0020289 328.0436  31.9549 14.88283957539112
Epoch (UTC): 12 June 2021 19:58:17
Eccentricity: 0.0020289
inclination: 82.5211°
perigee height: 589 km
apogee height: 617 km
right ascension of ascending node: 79.7763°
argument of perigee: 328.0436°
revolutions per day: 14.88283957
mean anomaly at epoch: 31.9549°
orbit number at epoch: 53911

The dashed part of the orbit path shows where the satellite is in the earth's shadow,  

DLR